User: anonymous   Login
Location: Unspecified
(0.0000°N, 0.0000°E)
Time: 16:53:46
(UTC+00:00)
Language:

Explorer 7 - Orbit

View from above orbital plane
View from above orbital plane
View from above satellite
View from above satellite

Ground track
Ground track

The orbit data is extracted from the following two-line orbital elements,

1 00022U 59009A   21101.82658533  .00000223  00000-0  39384-4 0  9990
2 00022  50.2835 141.7616 0138799 318.9127  40.1432 14.95478949515019
Epoch (UTC): 11 April 2021 19:50:16
Eccentricity: 0.0138799
inclination: 50.2835°
perigee height: 484 km
apogee height: 677 km
right ascension of ascending node: 141.7616°
argument of perigee: 318.9127°
revolutions per day: 14.95478949
mean anomaly at epoch: 40.1432°
orbit number at epoch: 51501

The dashed part of the orbit path shows where the satellite is in the earth's shadow,  

DLR